Stations météo

réclame
Mon MeteoGroup
Leutkirch-Herlazhofen, Allemagne (10945): Température de l'air & dewpoint: 04.12.2018 23:00:00 - 10.12.2018 23:00:00 (CET)Leutkirch-Herlazhofen, Allemagne (10945): Température de l'air 5cm & Température de l'air -5cm: 04.12.2018 23:00:00 - 10.12.2018 23:00:00 (CET)Leutkirch-Herlazhofen, Allemagne (10945): Température de l'air -20cm & Température de l'air -100cm: 04.12.2018 23:00:00 - 10.12.2018 23:00:00 (CET)Leutkirch-Herlazhofen, Allemagne (10945): Vitesse du vent & gusts: 04.12.2018 23:00:00 - 10.12.2018 23:00:00 (CET)Leutkirch-Herlazhofen, Allemagne (10945): Direction du vent: 04.12.2018 23:00:00 - 10.12.2018 23:00:00 (CET)Leutkirch-Herlazhofen, Allemagne (10945): reduced air pressure: 04.12.2018 23:00:00 - 10.12.2018 23:00:00 (CET)Leutkirch-Herlazhofen, Allemagne (10945): visibility: 04.12.2018 23:00:00 - 10.12.2018 23:00:00 (CET)Leutkirch-Herlazhofen, Allemagne (10945): Ensoleillement: 04.12.2018 23:00:00 - 10.12.2018 23:00:00 (CET)Leutkirch-Herlazhofen, Allemagne (10945): Quantités de précipitations: 04.12.2018 23:00:00 - 10.12.2018 23:00:00 (CET)
Date & Time tt [°C] td [°C] tt 5cm [°C] tt -5cm [°C] tt -20cm [°C] tt -100cm [°C] ff [km/h] ff [knt] fx [km/h] fx [knt] dd ppp [hPa] vv [km] sd [min] rr [mm]
10.12.2018 23:00:00 1,1 -0,2 0,4 1,8 3,9 7,5 20 11 29 16 WSW 1024,4 17 0 0,0
10.12.2018 22:00:00 0,7 -0,1 -0,1 1,8 4,0 7,6 17 9 27 15 WSW 1024,5 - 0 0,2
10.12.2018 21:00:00 0,8 -0,6 0,0 1,9 4,1 7,6 17 9 25 14 WSW 1024,5 15 0 0,0
10.12.2018 20:00:00 0,6 -0,5 -0,4 2,1 4,2 7,6 16 8 38 21 SW 1024,8 43 0 0,0
10.12.2018 19:00:00 0,9 -0,4 0,2 2,1 4,2 7,6 16 9 27 15 SW 1024,5 62 0 0,0
10.12.2018 18:00:00 0,6 0,1 0,1 2,4 4,3 7,6 16 9 26 14 WSW 1024,2 30 0 0,3
10.12.2018 17:00:00 1,1 0,1 0,5 2,7 4,4 7,6 12 6 21 11 SW 1024,3 8 0 0,1
10.12.2018 16:00:00 0,9 -0,8 -0,5 3,2 4,3 7,6 14 8 31 17 SW 1024,5 75 19 0,0
10.12.2018 15:00:00 2,8 -0,7 2,3 3,5 4,3 7,6 13 7 27 15 SW 1023,9 75 0 0,0
10.12.2018 14:00:00 2,7 -0,3 2,3 3,6 4,3 7,6 18 10 31 17 W 1024,2 67 5 0,0
10.12.2018 13:00:00 2,2 0,0 1,7 3,2 4,3 7,6 20 11 44 24 W 1024,4 67 9 0,6
10.12.2018 12:00:00 1,8 0,4 1,4 3,3 4,3 7,6 19 11 37 20 WSW 1024,7 11 1 0,0
10.12.2018 11:00:00 2,5 0,0 2,8 2,9 4,3 7,6 22 12 32 17 WSW 1024,6 58 14 0,0
10.12.2018 10:00:00 1,6 -0,5 1,4 2,4 4,4 7,6 20 11 32 17 WSW 1024,4 75 0 0,0
10.12.2018 09:00:00 1,7 -0,1 1,0 2,5 4,5 7,6 21 12 34 18 WSW 1023,4 67 0 0,0
10.12.2018 08:00:00 1,8 0,2 0,8 2,7 4,5 7,6 19 10 33 18 WSW 1022,9 54 0 0,0
10.12.2018 07:00:00 2,3 0,9 1,7 2,7 4,6 7,6 22 12 33 18 SW 1022,3 68 0 0,0
10.12.2018 06:00:00 2,2 0,8 1,5 2,9 4,7 7,6 22 12 35 19 SW 1022,1 68 0 0,0
10.12.2018 05:00:00 2,1 0,5 1,2 3,1 4,7 7,6 23 12 41 22 WSW 1021,8 75 0 0,0
10.12.2018 04:00:00 2,9 1,4 2,4 3,3 4,8 7,6 24 13 37 20 WSW 1021,0 72 0 0,0
10.12.2018 03:00:00 2,7 1,7 2,2 3,3 4,8 7,6 19 10 34 18 WSW 1020,5 11 0 1,5
10.12.2018 02:00:00 2,8 1,3 2,1 3,5 4,9 7,6 25 14 36 19 WSW 1019,5 37 0 0,0
10.12.2018 01:00:00 3,3 1,5 2,6 3,5 5,0 7,6 20 11 29 16 WSW 1018,5 74 0 0,0
10.12.2018 00:00:00 3,2 1,4 1,9 3,8 5,0 7,6 19 10 31 17 W 1017,5 75 0 0,0
09.12.2018 23:00:00 4,0 2,8 3,2 4,1 5,0 7,6 26 14 41 22 WSW 1016,0 65 0 0,2
09.12.2018 22:00:00 4,3 3,3 3,7 4,2 5,0 7,6 22 12 39 21 WSW 1014,9 4,8 0 0,2
09.12.2018 21:00:00 4,4 2,9 3,9 4,2 5,0 7,6 27 15 44 24 WSW 1013,8 75 0 0,0
09.12.2018 20:00:00 4,2 3,2 3,6 4,1 5,0 7,6 26 14 60 32 WSW 1012,7 9 0 0,1
09.12.2018 19:00:00 3,7 2,8 3,3 4,1 5,1 7,6 34 18 62 33 WSW 1011,7 17 0 0,7
09.12.2018 18:00:00 4,1 2,7 3,4 4,1 5,1 7,6 37 20 57 31 SW 1010,5 27 0 0,0
09.12.2018 17:00:00 3,6 2,3 2,9 4,3 5,1 7,6 35 19 50 27 WSW 1010,0 8 0 2,0
09.12.2018 16:00:00 3,8 2,8 3,3 4,4 5,1 7,6 37 20 58 32 SW 1009,5 7 0 0,7
09.12.2018 15:00:00 3,9 3,0 3,5 4,5 5,2 7,6 27 15 50 27 SW 1009,4 10 0 1,9
09.12.2018 14:00:00 4,2 2,6 3,5 4,6 5,1 7,6 33 18 57 31 WSW 1009,1 10 0 0,6
09.12.2018 13:00:00 5,1 2,0 4,7 4,6 5,1 7,6 35 19 58 31 SW 1008,9 38 0 0,0
09.12.2018 12:00:00 4,7 2,4 4,5 4,5 5,1 7,6 34 18 58 32 SW 1009,5 44 0 0,0
09.12.2018 11:00:00 4,6 2,9 4,4 4,4 5,2 7,6 33 18 53 28 SW 1010,3 62 0 0,8
09.12.2018 10:00:00 4,0 3,2 3,5 4,3 5,2 7,6 33 18 56 30 WSW 1010,1 7 0 1,3
09.12.2018 09:00:00 4,6 3,4 3,9 4,1 5,3 7,6 35 19 53 29 WSW 1008,2 16 0 0,1
09.12.2018 08:00:00 2,8 1,7 2,2 4,4 5,3 7,7 17 9 73 40 SW 1007,7 75 0 2,1
09.12.2018 07:00:00 6,0 3,3 4,7 4,9 5,2 7,7 51 28 74 40 WSW 1006,5 11 0 0,2
09.12.2018 06:00:00 6,3 4,3 5,5 4,9 5,2 7,7 37 20 77 42 SW 1005,5 44 0 0,1
09.12.2018 05:00:00 6,2 4,4 5,1 4,9 5,1 7,7 48 26 78 42 WSW 1005,5 18 0 1,4
09.12.2018 04:00:00 7,1 4,1 5,9 4,7 5,1 7,7 47 25 67 36 WSW 1005,3 75 0 0,6
09.12.2018 03:00:00 5,8 4,5 4,9 4,4 5,1 7,7 29 16 51 28 SW 1006,7 7 0 1,2
09.12.2018 02:00:00 5,7 3,4 4,4 4,2 5,2 7,7 30 16 45 24 SW 1007,2 15 0 0,1
09.12.2018 01:00:00 4,3 2,8 3,5 4,1 5,2 7,7 25 14 43 23 SSW 1009,6 13 0 0,5
09.12.2018 00:00:00 4,0 2,5 3,1 4,1 5,2 7,6 25 13 43 23 SSW 1011,0 19 0 0,4
08.12.2018 23:00:00 3,9 2,4 3,0 4,1 5,2 7,6 27 15 41 22 SSW 1012,4 6 0 0,8
08.12.2018 22:00:00 4,2 2,6 3,3 4,2 5,2 7,6 29 15 54 29 SSW 1013,5 12 0 0,3
08.12.2018 21:00:00 5,2 1,7 3,7 4,2 5,2 7,6 32 17 61 33 SW 1014,5 27 0 0,0
08.12.2018 20:00:00 6,0 0,9 5,1 4,2 5,2 7,6 33 18 55 30 SW 1014,9 67 0 0,0
08.12.2018 19:00:00 5,7 0,9 4,6 4,1 5,3 7,6 36 20 51 28 SW 1015,4 69 0 0,1
08.12.2018 18:00:00 5,1 1,4 3,7 4,1 5,3 7,6 31 17 50 27 SW 1016,3 24 0 0,0
08.12.2018 17:00:00 4,6 1,6 3,4 4,2 5,3 7,6 32 17 53 29 SW 1016,7 12 0 0,0
08.12.2018 16:00:00 4,8 0,8 3,6 4,2 5,3 7,6 29 16 56 31 SW 1016,4 30 0 0,1
08.12.2018 15:00:00 4,8 0,6 3,6 4,3 5,3 7,6 33 18 64 35 SW 1016,3 40 0 0,1
08.12.2018 14:00:00 4,9 -0,2 3,8 4,4 5,3 7,6 32 17 58 31 SW 1016,4 28 0 0,0
08.12.2018 13:00:00 5,1 -0,8 4,7 4,3 5,3 7,6 42 23 68 37 SW 1016,4 66 17 0,0
08.12.2018 12:00:00 4,8 -0,8 4,5 4,1 5,3 7,6 38 21 62 34 SW 1017,1 62 19 0,0
08.12.2018 11:00:00 4,6 -0,4 4,9 3,7 5,4 7,6 35 19 64 35 SW 1017,5 50 24 0,0
08.12.2018 10:00:00 3,8 -1,1 2,9 3,4 5,5 7,6 31 17 50 27 SW 1018,1 65 19 0,0
08.12.2018 09:00:00 3,8 -1,2 2,9 3,5 5,6 7,6 33 18 54 29 WSW 1018,3 75 19 0,0
08.12.2018 08:00:00 3,8 -1,0 2,8 3,5 5,8 7,6 34 18 50 27 WSW 1018,4 70 0 0,0
08.12.2018 07:00:00 3,0 0,0 2,0 3,7 5,9 7,6 25 13 44 24 SW 1018,1 56 0 0,0
08.12.2018 06:00:00 2,8 0,0 1,5 3,8 6,0 7,6 24 13 43 23 SW 1018,0 43 0 0,0
08.12.2018 05:00:00 2,6 -0,4 1,2 4,1 6,2 7,6 28 15 47 25 WSW 1017,8 59 0 0,0
08.12.2018 04:00:00 2,9 1,0 1,9 4,5 6,3 7,6 30 16 54 29 SW 1017,5 66 0 0,0
08.12.2018 03:00:00 2,5 1,4 2,1 4,9 6,4 7,6 28 15 42 23 WSW 1017,8 48 0 0,9
08.12.2018 02:00:00 3,5 1,5 2,5 5,3 6,5 7,6 31 17 46 25 WSW 1016,6 11 0 0,6
08.12.2018 01:00:00 4,6 2,2 3,7 5,7 6,6 7,6 28 15 75 41 W 1014,5 75 0 1,9
08.12.2018 00:00:00 6,0 4,5 5,1 6,2 6,6 7,6 23 12 68 37 SW 1011,7 75 0 0,5
07.12.2018 23:00:00 7,1 4,7 5,8 6,4 6,7 7,6 41 22 68 37 W 1010,5 12 0 3,0
07.12.2018 22:00:00 7,6 5,8 6,5 6,3 6,7 7,6 31 17 58 31 SW 1010,4 38 0 0,9
07.12.2018 21:00:00 7,4 5,7 6,3 6,2 6,8 7,6 25 14 42 23 SW 1010,9 12 0 0,4
07.12.2018 20:00:00 7,8 5,2 6,8 6,0 6,9 7,6 21 12 42 23 SW 1010,5 60 0 0,0
07.12.2018 19:00:00 6,7 5,1 4,8 6,1 6,9 7,6 15 8 24 13 SSW 1010,2 54 0 0,0
07.12.2018 18:00:00 6,8 5,2 4,8 6,6 7,0 7,6 14 8 23 12 SSW 1010,2 45 0 0,0
07.12.2018 17:00:00 6,5 4,9 4,0 7,5 6,9 7,6 11 6 33 18 SW 1011,3 62 17 0,0
07.12.2018 16:00:00 8,8 5,9 8,4 8,1 6,8 7,6 19 11 35 19 SW 1012,1 75 7 0,0
07.12.2018 15:00:00 9,7 6,1 9,5 8,3 6,7 7,6 24 13 39 21 SW 1013,1 75 20 0,0
07.12.2018 14:00:00 9,7 6,2 10,1 8,1 6,6 7,6 17 9 29 16 SW 1013,4 69 4 0,0
07.12.2018 13:00:00 9,5 5,9 9,6 8,0 6,5 7,6 21 11 36 19 SW 1014,7 74 8 0,0
07.12.2018 12:00:00 9,8 5,9 10,6 7,7 6,4 7,6 23 12 36 20 SW 1016,5 75 26 0,0
07.12.2018 11:00:00 9,9 5,7 10,2 7,1 6,3 7,6 27 14 42 23 SW 1017,5 71 19 0,0
07.12.2018 10:00:00 8,5 5,5 7,9 6,4 6,3 7,6 18 10 29 16 SSW 1018,5 75 0 0,0
07.12.2018 09:00:00 7,4 5,3 6,8 6,2 6,3 7,6 10 5 17 9 S 1020,0 75 0 0,0
07.12.2018 08:00:00 7,7 5,1 6,9 6,2 6,3 7,6 11 6 22 12 SSW 1020,5 75 0 0,0
07.12.2018 07:00:00 7,4 5,1 6,6 6,3 6,3 7,6 12 7 20 11 SSW 1020,8 75 0 0,0
07.12.2018 06:00:00 7,9 5,2 7,0 6,3 6,3 7,6 16 9 23 12 SW 1021,0 75 0 0,0
07.12.2018 05:00:00 8,4 5,4 7,6 6,3 6,3 7,6 16 9 24 13 SW 1021,4 75 0 0,0
07.12.2018 04:00:00 7,9 5,5 7,0 6,3 6,3 7,6 18 10 28 15 SW 1022,2 75 0 0,0
07.12.2018 03:00:00 7,8 5,7 7,0 6,3 6,3 7,6 15 8 25 14 SSW 1022,7 75 0 0,0
07.12.2018 02:00:00 7,7 5,9 6,8 6,3 6,3 7,6 13 7 21 11 SSW 1023,1 72 0 0,0
07.12.2018 01:00:00 7,8 6,0 6,8 6,3 6,3 7,5 14 8 20 11 SSW 1023,4 56 0 0,0
07.12.2018 00:00:00 7,9 6,1 6,6 6,4 6,3 7,5 14 7 20 11 SW 1023,4 52 0 0,0
06.12.2018 23:00:00 8,1 6,4 7,4 6,4 6,3 7,5 14 7 27 15 SW 1023,7 55 0 0,0
06.12.2018 22:00:00 7,9 6,3 7,0 6,3 6,3 7,5 16 8 26 14 SW 1024,0 53 0 0,0
06.12.2018 21:00:00 7,8 6,2 6,9 6,3 6,3 7,5 11 6 22 12 SW 1024,2 75 0 0,0
06.12.2018 20:00:00 7,5 6,2 6,3 6,5 6,3 7,5 15 8 22 12 SSW 1024,3 44 0 0,0
06.12.2018 19:00:00 7,8 6,6 6,9 6,6 6,3 7,5 14 7 19 11 SSW 1024,1 38 0 0,0
06.12.2018 18:00:00 7,7 6,8 7,0 6,7 6,3 7,5 11 6 18 10 SW 1023,9 32 0 0,0
06.12.2018 17:00:00 7,8 7,0 7,1 7,0 6,2 7,5 17 9 33 18 SW 1023,2 17 0 0,0
06.12.2018 16:00:00 7,9 7,0 7,4 7,1 6,1 7,5 20 11 32 17 SW 1023,2 10 0 0,1
06.12.2018 15:00:00 7,9 7,1 7,5 7,2 6,0 7,5 13 7 24 13 SW 1022,9 4,9 0 0,2
06.12.2018 14:00:00 8,1 6,9 7,8 7,2 5,8 7,5 19 10 34 18 SW 1022,6 36 0 0,0
06.12.2018 13:00:00 8,2 6,7 8,5 7,0 5,7 7,5 21 12 34 18 SW 1022,3 47 0 0,0
06.12.2018 12:00:00 8,1 6,8 8,3 6,6 5,6 7,5 21 11 33 18 SW 1022,8 37 1 0,0
06.12.2018 11:00:00 7,6 6,6 7,9 6,0 5,5 7,5 21 11 27 15 SSW 1023,0 26 0 0,0
06.12.2018 10:00:00 7,3 6,2 6,9 5,6 5,5 7,5 15 8 33 18 SW 1022,4 13 0 0,0
06.12.2018 09:00:00 7,2 6,0 6,2 5,3 5,5 7,5 21 11 33 18 SW 1021,5 31 0 0,1
06.12.2018 08:00:00 6,4 5,7 5,7 5,2 5,5 7,5 16 9 31 17 SSW 1021,2 24 0 1,3
06.12.2018 07:00:00 6,3 5,6 5,7 5,0 5,4 7,5 21 11 35 19 SSW 1021,1 7 0 1,2
06.12.2018 06:00:00 5,9 5,2 5,2 4,8 5,4 7,5 14 8 21 12 SW 1020,9 6 0 0,3
06.12.2018 05:00:00 5,5 4,6 4,3 4,9 5,4 7,5 9 5 20 11 S 1019,7 40 0 0,0
06.12.2018 04:00:00 5,4 4,6 4,7 4,9 5,4 7,5 4 2 20 11 NE 1020,7 14 0 0,0
06.12.2018 03:00:00 6,1 4,9 5,2 4,8 5,4 7,5 12 7 16 8 SE 1020,1 38 0 0,3
06.12.2018 02:00:00 5,6 4,8 5,0 4,7 5,4 7,5 9 5 24 13 S 1021,3 11 0 0,4
06.12.2018 01:00:00 4,8 4,3 4,3 4,6 5,5 7,5 6 4 12 6 S 1021,0 7 0 0,0
06.12.2018 00:00:00 5,1 4,4 4,4 4,5 5,5 7,5 8 4 33 18 W 1021,1 13 0 0,0
05.12.2018 23:00:00 4,8 4,1 3,7 4,4 5,5 7,5 5 3 13 7 S 1021,4 60 0 0,0
05.12.2018 22:00:00 3,4 3,1 2,7 4,4 5,6 7,5 0 0 4 2 N 1022,2 12 0 0,0
05.12.2018 21:00:00 3,3 3,2 2,2 4,5 5,7 7,5 2 1 5 3 ESE 1022,4 9 0 0,0
05.12.2018 20:00:00 3,3 3,1 2,8 4,6 5,7 7,5 3 2 5 3 ENE 1022,8 10 0 0,0
05.12.2018 19:00:00 3,0 3,0 2,4 4,7 5,8 7,5 2 1 4 2 E 1023,4 1,9 0 0,0
05.12.2018 18:00:00 2,9 2,9 0,9 5,1 5,8 7,4 4 2 5 3 ESE 1023,8 0,3 0 0,0
05.12.2018 17:00:00 3,3 2,2 0,9 5,9 5,7 7,4 3 2 6 3 ESE 1024,1 2,1 0 0,0
05.12.2018 16:00:00 6,5 5,1 5,4 6,5 5,6 7,4 4 2 5 3 NW 1023,9 44 12 0,0
05.12.2018 15:00:00 6,7 4,8 7,1 6,4 5,5 7,4 4 2 6 4 NNW 1024,3 35 22 0,0
05.12.2018 14:00:00 6,2 4,3 6,8 5,9 5,4 7,4 4 2 8 4 ENE 1025,2 52 0 0,0
05.12.2018 13:00:00 5,8 4,7 6,3 5,4 5,3 7,4 6 3 9 5 N 1025,9 42 0 0,0
05.12.2018 12:00:00 4,8 3,9 5,2 4,6 5,3 7,4 2 1 5 3 SW 1026,8 30 0 0,0
05.12.2018 11:00:00 3,7 3,2 3,9 4,2 5,3 7,4 2 1 4 2 NE 1027,8 33 0 0,0
05.12.2018 10:00:00 3,1 2,8 3,0 4,0 5,4 7,4 2 1 4 2 W 1028,0 15 0 0,0
05.12.2018 09:00:00 2,5 2,3 2,2 3,9 5,5 7,4 1 1 4 2 ESE 1028,2 15 0 0,0
05.12.2018 08:00:00 2,3 2,3 2,0 3,9 5,6 7,4 3 2 4 2 S 1028,2 13 0 0,0
05.12.2018 07:00:00 2,1 2,0 1,9 3,9 5,7 7,4 0 0 5 3 N 1027,9 6 0 0,0
05.12.2018 06:00:00 1,6 1,5 1,5 3,9 5,8 7,4 2 1 7 4 SE 1028,4 0,5 0 0,0
05.12.2018 05:00:00 1,4 1,2 0,3 4,3 5,8 7,3 4 2 5 3 SSE 1027,8 0,1 0 0,0
05.12.2018 04:00:00 2,7 2,5 1,6 4,5 5,9 7,3 1 1 5 3 SSW 1027,6 3,4 0 0,0
05.12.2018 03:00:00 3,5 3,2 1,8 4,8 6,0 7,3 3 1 6 3 ESE 1027,3 18 0 0,0
05.12.2018 02:00:00 3,6 3,3 3,1 5,0 6,0 7,3 4 2 6 3 ESE 1027,6 9 0 0,0
05.12.2018 01:00:00 3,7 3,5 3,2 5,2 6,1 7,3 3 2 5 3 WSW 1028,0 6 0 0,0
05.12.2018 00:00:00 4,1 3,5 3,5 5,3 6,1 7,3 4 2 6 3 ENE 1028,0 7 0 0,0
04.12.2018 23:00:00 4,4 3,6 4,0 5,4 6,2 7,3 3 1 9 5 E 1027,6 7 0 0,2

tt = Température de l'air
td = dewpoint
tt 5cm = Température de l'air 5cm
tt -5cm = Température de l'air -5cm
tt -20cm = Température de l'air -20cm
tt -100cm = Température de l'air -100cm
ff = Vitesse du vent
fx = gusts
dd = Direction du vent
ppp = reduced air pressure
vv = visibility
sd = Ensoleillement
rr = Quantités de précipitations

stations d'obs. à proximité